Location: Balaclava NSW 2575, Australia
(34.4510°S, 150.4953°E)
Time: 04:52:58
(UTC+10:00)

Envisat - Pass Details

Date: 22 May 2021
Orbit: 764 x 766 km, 98.1° (Epoch: 15 June)

Event Time Altitude Azimuth Distance (km) Brightness Sun altitude
Rises 04:05:08 0° 32° (NNE) 3,219 6.7 -33.5°
Reaches altitude 10° 04:07:31 10° 39° (NE) 2,301 5.9 -33.0°
Maximum altitude 04:12:15 41° 108° (ESE) 1,116 4.1 -32.1°
Enters shadow 04:13:23 36° 139° (SE) 1,218 4.2 -31.8°
